Date String (YYYY-MM-DD hh:mm:ss) UTC,Instrument flags,Ambient pressure (hPa),Sample flow (lpm),Bypass flow (lpm),Sample temperature (°C),Ambient temperature (°C),ASC tube jacket temperature (°C),LED temperature (°C),Box temperature (°C),Sample RH (%),Span deviation,Mass concentration (μg/m³),Mass concentration (μg/m³),Mass concentration (μg/m³)
DateTimeUTC,F1_M11,P_M11,Q1_M11,Q2_M11,T1_M11,T2_M11,T3_M11,T4_M11,T5_M11,U1_M11,ZSPAN_M11,X0_M11,X2_M11,X1_M11
2022-01-28 04:00:00,,0835.7,5.00,0.00,21.8,21.3,00.0,30.8,23.3,08.3,0005.2,0008.56,0005.79,0005.42
2022-01-28 04:01:00,,0835.7,4.99,0.00,21.7,21.1,00.0,30.8,23.2,08.4,0005.5,0008.47,0005.74,0005.40
2022-01-28 04:02:00,,0835.7,4.99,0.00,21.6,21.0,00.0,30.8,23.2,08.5,0005.6,0008.34,0005.67,0005.35
2022-01-28 04:03:00,,0835.7,5.00,0.00,21.6,20.9,00.0,30.7,23.1,08.5,0005.4,0008.25,0005.59,0005.28
2022-01-28 04:04:00,,0835.7,5.01,0.00,21.6,21.2,00.0,30.7,23.2,08.6,0005.1,0008.17,0005.52,0005.22
2022-01-28 04:05:00,,0835.8,5.00,0.00,21.7,21.9,00.0,30.8,23.5,08.5,0005.1,0008.09,0005.45,0005.16
2022-01-28 04:06:00,,0835.8,4.99,0.00,21.9,22.7,00.0,30.8,23.8,08.4,0005.0,0007.98,0005.38,0005.11
2022-01-28 04:07:00,,0835.8,5.02,0.00,22.0,22.9,00.0,30.9,24.0,08.3,0004.6,0007.81,0005.31,0005.05
2022-01-28 04:08:00,,0835.8,4.99,0.00,22.0,22.5,00.0,30.9,23.9,08.3,0004.4,0007.75,0005.27,0005.02
2022-01-28 04:09:00,,0835.8,5.00,0.00,22.0,22.2,00.0,30.9,23.8,08.3,0004.8,0007.72,0005.23,0004.99
2022-01-28 04:10:00,,0835.7,4.99,0.00,21.9,21.9,00.0,30.9,23.6,08.3,0004.7,0007.71,0005.20,0004.97
2022-01-28 04:11:00,,0835.7,5.01,0.00,21.9,21.6,00.0,30.9,23.5,08.3,0003.7,0007.70,0005.18,0004.95
2022-01-28 04:12:00,,0835.7,5.00,0.00,21.8,21.4,00.0,30.8,23.4,08.3,0002.8,0007.66,0005.15,0004.93
2022-01-28 04:13:00,,0835.7,5.00,0.00,21.8,21.2,00.0,30.8,23.3,08.3,0002.5,0007.71,0005.16,0004.92
2022-01-28 04:14:00,,0835.6,5.01,0.00,21.7,21.0,00.0,30.8,23.2,08.3,0002.0,0007.73,0005.18,0004.93
2022-01-28 04:15:00,,0835.6,4.99,0.00,21.6,20.9,00.0,30.8,23.2,08.3,0000.5,0007.73,0005.18,0004.94
2022-01-28 04:16:00,,0835.6,5.01,0.00,21.6,21.0,00.0,30.8,23.2,08.4,0000.0,0007.79,0005.20,0004.94
2022-01-28 04:17:00,,0835.6,5.00,0.00,21.7,21.8,00.0,30.8,23.4,08.3,0000.0,0007.86,0005.23,0004.96
2022-01-28 04:18:00,,0835.6,5.01,0.00,21.9,22.5,00.0,30.8,23.7,08.3,0000.0,0007.83,0005.23,0004.95
2022-01-28 04:19:00,,0835.6,4.99,0.00,22.0,23.0,00.0,30.9,23.9,08.3,0000.0,0007.79,0005.19,0004.93
2022-01-28 04:20:00,,0835.7,5.01,0.00,22.1,22.6,00.0,30.9,23.9,08.2,0000.0,0007.77,0005.17,0004.90
2022-01-28 04:21:00,,0835.6,5.00,0.00,22.0,22.2,00.0,30.9,23.8,08.3,0000.0,0007.70,0005.14,0004.89
2022-01-28 04:22:00,,0835.6,4.99,0.00,22.0,21.9,00.0,30.9,23.6,08.3,0000.0,0007.69,0005.13,0004.87
2022-01-28 04:23:00,,0835.6,5.01,0.00,21.9,21.6,00.0,30.9,23.5,08.4,0000.0,0007.65,0005.10,0004.85
2022-01-28 04:24:00,,0835.6,5.01,0.00,21.8,21.4,00.0,30.9,23.4,08.3,0000.0,0007.64,0005.10,0004.85
2022-01-28 04:25:00,,0835.6,4.98,0.00,21.8,21.2,00.0,30.8,23.3,08.3,0000.0,0007.63,0005.09,0004.84
2022-01-28 04:26:00,,0835.6,5.01,0.00,21.7,21.0,00.0,30.8,23.2,08.4,0000.0,0007.62,0005.07,0004.82
2022-01-28 04:27:00,,0835.6,5.01,0.00,21.6,20.9,00.0,30.8,23.1,08.5,0000.0,0007.62,0005.07,0004.80
2022-01-28 04:28:00,,0835.5,5.00,0.00,21.6,20.9,00.0,30.8,23.1,08.5,0000.0,0007.60,0005.03,0004.75
2022-01-28 04:29:00,,0835.5,4.99,0.00,21.7,21.5,00.0,30.8,23.3,08.5,0000.0,0007.55,0004.97,0004.71
2022-01-28 04:30:00,,0835.5,5.01,0.00,21.8,22.3,00.0,30.8,23.6,08.4,0000.0,0007.56,0004.98,0004.71
2022-01-28 04:31:00,,0835.5,5.01,0.00,22.0,22.9,00.0,30.9,23.9,08.4,0000.0,0007.53,0004.96,0004.70
2022-01-28 04:32:00,,0835.5,5.00,0.00,22.0,22.7,00.0,30.9,23.9,08.4,0000.0,0007.50,0004.92,0004.66
2022-01-28 04:33:00,,0835.5,5.00,0.00,22.0,22.3,00.0,30.9,23.8,08.4,0000.0,0007.43,0004.88,0004.63
2022-01-28 04:34:00,,0835.5,4.99,0.00,22.0,21.9,00.0,30.9,23.7,08.4,0000.0,0007.44,0004.88,0004.62
2022-01-28 04:35:00,,0835.5,5.00,0.00,21.9,21.6,00.0,30.9,23.5,08.3,0000.0,0007.43,0004.86,0004.60
2022-01-28 04:36:00,,0835.5,5.00,0.00,21.8,21.4,00.0,30.9,23.4,08.4,0000.0,0007.49,0004.82,0004.56
2022-01-28 04:37:00,,0835.5,5.01,0.00,21.8,21.2,00.0,30.8,23.3,08.6,0000.0,0007.68,0004.78,0004.52
2022-01-28 04:38:00,,0835.5,5.00,0.00,21.7,21.1,00.0,30.8,23.3,08.7,0000.0,0007.58,0004.72,0004.48
2022-01-28 04:39:00,,0835.5,5.00,0.00,21.7,20.9,00.0,30.8,23.2,08.7,0000.0,0007.46,0004.67,0004.44
2022-01-28 04:40:00,,0835.5,4.99,0.00,21.6,21.0,00.0,30.8,23.2,08.6,0000.0,0007.51,0004.69,0004.44
2022-01-28 04:41:00,,0835.5,5.02,0.00,21.7,21.8,00.0,30.8,23.4,08.4,0000.0,0007.54,0004.69,0004.44
2022-01-28 04:42:00,,0835.5,5.01,0.00,21.9,22.5,00.0,30.8,23.7,08.3,0000.0,0007.57,0004.70,0004.44
2022-01-28 04:43:00,,0835.5,4.99,0.00,22.0,23.0,00.0,30.9,23.9,08.3,0000.0,0007.56,0004.70,0004.44
2022-01-28 04:44:00,,0835.4,5.01,0.00,22.1,22.7,00.0,30.9,23.9,08.2,0000.0,0007.59,0004.71,0004.44
2022-01-28 04:45:00,,0835.5,4.99,0.00,22.0,22.3,00.0,30.9,23.8,08.1,0000.0,0007.62,0004.72,0004.45
2022-01-28 04:46:00,,0835.5,5.00,0.00,22.0,22.0,00.0,30.9,23.6,08.2,0000.0,0007.66,0004.73,0004.44
2022-01-28 04:47:00,,0835.5,5.01,0.00,21.9,21.7,00.0,30.9,23.5,08.1,0000.0,0007.62,0004.72,0004.44
2022-01-28 04:48:00,,0835.5,5.00,0.00,21.8,21.4,00.0,30.9,23.4,08.0,0000.0,0007.33,0004.74,0004.48
2022-01-28 04:49:00,,0835.5,4.99,0.00,21.8,21.2,00.0,30.9,23.3,08.1,0000.0,0007.38,0004.77,0004.51
2022-01-28 04:50:00,,0835.5,5.01,0.00,21.7,21.0,00.0,30.8,23.2,08.1,0000.4,0007.36,0004.78,0004.53
2022-01-28 04:51:00,,0835.5,5.00,0.00,21.7,20.8,00.0,30.8,23.2,08.1,0000.3,0007.31,0004.77,0004.55
2022-01-28 04:52:00,,0835.5,5.00,0.00,21.6,20.9,00.0,30.8,23.1,08.0,0000.0,0007.26,0004.75,0004.53
2022-01-28 04:53:00,,0835.5,5.00,0.00,21.7,21.5,00.0,30.8,23.3,08.1,0000.0,0007.15,0004.72,0004.51
2022-01-28 04:54:00,,0835.5,5.01,0.00,21.8,22.3,00.0,30.8,23.7,08.0,0000.0,0007.11,0004.72,0004.51
2022-01-28 04:55:00,,0835.5,5.00,0.00,22.0,22.9,00.0,30.9,23.9,07.9,0002.5,0007.15,0004.72,0004.51
2022-01-28 04:56:00,,0835.5,5.01,0.00,22.1,22.7,00.0,30.9,24.0,07.8,0000.3,0007.13,0004.70,0004.49
2022-01-28 04:57:00,,0835.4,5.01,0.00,22.0,22.4,00.0,30.9,23.9,07.9,0000.0,0007.03,0004.68,0004.49
2022-01-28 04:58:00,,0835.3,4.99,0.00,22.0,22.0,00.0,30.9,23.7,08.0,0000.0,0006.93,0004.65,0004.47
2022-01-28 04:59:00,,0835.4,4.99,0.00,21.9,21.7,00.0,30.9,23.6,08.1,0000.0,0006.92,0004.63,0004.43
